Home   Weather   Lódz   Past weeks

Flag for Poland Past Weather in Lódz, Poland — Yesterday and Last 2 Weeks

Now
73 °F

Passing clouds.


Feels Like: 77 °F
Forecast: 53 / 78 °F
Wind: N/A

Location: Lodz

Current Time: Aug 31, 2016 at 6:16:37 PM

Latest Report: Aug 31, 2016 at 5:00 PM


Visibility: 13 mi

Pressure: 30.22 "Hg

Humidity: 43%

Dew Point: 49 °F

Location of LódzLocation

Past Weather in Lódz — Graph

°F

Lódz Temperature Yesterday

Maximum temperature yesterday: 69 °F (at 2:00 PM)
Minimum temperature yesterday: 49 °F (at 11:00 PM)
Average temperature yesterday: 60 °F

High & Low Weather Summary for the Past Weeks

 TemperatureHumidityPressure
High86 °F (Aug 28, 4:00 PM)98% (Aug 17, 6:00 AM)30.34 "Hg (Aug 17, 6:00 AM)
Low42 °F (Aug 31, 5:00 AM)32% (Aug 26, 4:00 PM)29.80 "Hg (Aug 18, 4:00 PM)
Average65 °F71%30.10 "Hg
* Reported Aug 16 5:00 PM — Aug 31 5:00 PM, Lódz, Weather by CustomWeather, © 2016

Note: Actual official high and low records may vary slightly from our data, if they occured in-between our weather recording intervals... More about our weather records

Advertising

Lódz Weather History for the Previous 24 Hours

Scroll right to see more
 ConditionsComfort  
Time TempWeatherWind HumidityBarometerVisibility
5:00 PM
Wed, Aug 31
73 °FPassing clouds.N/A43%30.22 "Hg12 mi
4:00 PM74 °FPassing clouds.1 mph44%30.22 "Hg12 mi
3:00 PM73 °FPassing clouds.N/A44%30.24 "Hg12 mi
2:00 PM72 °FPassing clouds.N/A44%30.26 "Hg12 mi
1:00 PM71 °FPassing clouds.N/A47%30.27 "Hg12 mi
12:00 PM69 °FPassing clouds.N/A50%30.28 "Hg12 mi
11:00 AM67 °FPassing clouds.2 mph51%30.29 "Hg12 mi
10:00 AM64 °FPassing clouds.2 mph56%30.30 "Hg12 mi
9:00 AM60 °FPassing clouds.1 mph72%30.30 "Hg12 mi
8:00 AM53 °FPassing clouds.No wind84%30.31 "Hg12 mi
7:00 AM45 °FScattered clouds.1 mph96%30.31 "Hg9 mi
6:00 AM43 °FFog.1 mph94%30.31 "Hg11 mi
5:00 AM42 °FFog.No wind96%30.31 "Hg8 mi
4:00 AM44 °FFog.1 mph94%30.31 "Hg12 mi
3:00 AM44 °FClear.No wind92%30.32 "Hg11 mi
2:00 AM45 °FClear.No wind96%30.29 "Hg9 mi
1:00 AM46 °FFog.No wind92%30.30 "Hg12 mi
12:00 AM48 °FClear.No wind90%30.29 "Hg12 mi
11:00 PM
Tue, Aug 30
49 °FClear.No wind89%30.29 "Hg12 mi
10:00 PM52 °FPassing clouds.No wind82%30.28 "Hg12 mi
9:00 PM56 °FPassing clouds.1 mph73%30.26 "Hg12 mi
8:00 PM60 °FPassing clouds.2 mph63%30.24 "Hg12 mi
Weather by CustomWeather, © 2016

See weather overviewHow to use our weather pages